YAOGAN 29

Last updated on Tue Nov 21 2023 00:02:24 GMT+0000 (Coordinated Universal Time)

1 41038U 15069A 23324.60706068 .00000493 00000+0 70057-4 0 9992 2 41038 98.0625 332.7731 0001953 158.7640 201.3654 14.81350882431439
UTC large
Height (km)
Speed (km/s)
/
Latitude / Longitude
Inclination (degrees)
Orbital Period (minutes)
Azimuth
Elevation
Range (km)
Doppler Factor

Next 0 passes for location: London (51.5072 / 0.1276)

Sorry there are no passes over London.